Temperature
7 6 6 6 7 7 7 7 8 9 9 8 8 9 10 11 11 11 12 13 14 16 17 18 18 18 18 18 19 19 18 18 17 16 15 15 14 14 13 13 13 12 12 12
6 6 6 6 6 7 7 6 7 7 8 9 8 9 10 10 10 11 12 13 14 15 16 17 17 18 18 18 18 18 17 17 16 16 15 15 14 13 13 13 12 12 11 11
5 6 7 6 6 6 6 6 6 6 7 7 7 8 9 9 11 12 13 13 14 15 16 17 17 17 17 17 17 17 17 16 15 15 15 14 13 13 12 12 12 11 11 11
5 6 6 6 5 5 6 6 6 6 6 6 7 7 8 9 10 10 11 13 14 15 16 17 17 17 17 17 17 16 16 15 15 14 14 14 13 13 13 12 12 11 11 11
6 6 5 6 6 6 6 7 7 6 6 6 6 6 7 8 9 10 10 13 14 15 16 17 17 17 17 16 16 16 15 14 14 14 14 14 13 13 12 12 11 11 11 10
6 7 6 6 6 7 7 7 6 6 6 6 7 6 7 7 9 10 10 13 15 16 16 17 17 17 16 16 15 15 14 14 13 13 13 13 13 13 12 11 11 11 10 10
6 6 7 6 6 6 6 6 6 6 6 6 7 7 8 8 9 11 11 13 15 16 16 16 16 16 16 15 15 14 13 13 12 12 13 13 13 12 12 11 11 10 10 9
5 5 6 6 6 6 5 6 6 6 6 5 6 7 8 9 10 11 13 14 15 15 15 15 16 17 16 15 14 13 13 12 12 12 12 12 12 12 11 11 10 10 9 8
5 5 6 6 6 7 6 5 6 6 6 5 6 6 7 9 9 10 11 12 13 14 14 14 15 15 15 15 14 13 12 12 12 11 11 11 11 11 11 10 9 9 8 8
5 4 5 6 6 6 6 6 5 5 6 6 6 6 8 9 10 10 10 11 12 13 13 13 13 14 14 14 13 12 12 12 11 11 11 11 10 10 10 9 9 8 7 7
5 4 5 5 5 6 5 5 5 6 6 5 5 8 9 9 10 10 10 11 12 12 12 12 12 11 12 12 12 11 11 11 11 11 10 10 10 9 9 8 8 7 7 6
5 5 5 5 6 7 6 6 6 6 6 5 5 8 11 10 10 10 10 11 11 11 10 10 9 9 10 11 11 11 11 11 11 10 10 10 9 9 8 8 7 6 6 5
5 5 5 5 6 6 5 6 6 6 6 6 6 8 10 10 10 10 9 9 9 9 8 7 7 8 10 10 11 10 10 10 10 10 9 9 9 8 7 7 6 6 5 5
7 5 5 6 7 6 6 6 6 5 6 6 7 8 10 10 10 9 9 8 7 7 6 6 7 8 9 10 10 10 10 10 9 9 9 8 8 7 7 6 5 5 4 4
6 6 6 6 7 6 6 6 6 6 6 6 7 8 9 9 9 9 9 8 6 6 5 6 7 8 9 9 9 9 9 9 9 8 8 7 7 6 6 5 4 4 3 3
6 6 6 7 7 7 6 6 7 6 7 7 7 8 9 9 9 8 8 7 6 6 5 6 7 8 9 9 9 9 9 8 8 8 7 7 6 5 5 4 4 3 2 2
6 6 6 7 8 7 7 8 7 7 7 7 7 8 9 9 9 8 8 8 7 6 6 6 7 9 9 9 9 8 8 8 7 7 6 6 5 4 4 3 3 2 1 1
7 6 6 7 8 9 9 9 9 8 8 8 9 9 9 9 8 8 8 8 8 7 7 7 8 9 9 9 8 8 7 7 6 6 5 5 4 3 3 2 2 1 1 1
7 7 7 7 8 9 10 9 8 8 9 9 9 9 9 9 9 8 8 9 9 8 8 9 9 10 9 8 8 7 7 6 6 5 4 4 3 3 2 1 1 1 0 0
6 7 7 7 8 9 10 10 9 9 10 10 9 9 9 9 10 9 8 10 10 9 9 9 9 9 9 8 8 7 6 5 5 4 3 3 2 2 1 1 1 0 -0 -1
7 7 7 8 8 8 9 9 9 10 11 9 9 9 9 8 8 7 9 10 10 10 9 9 9 9 8 8 7 6 6 5 4 3 2 2 1 1 1 0 -0 -0 -1 -1
7 7 7 7 8 8 10 9 9 9 9 8 9 9 9 7 6 7 8 9 9 9 8 8 8 8 7 7 6 6 5 4 3 2 1 1 1 0 0 -0 -1 -1 -1 -2
6 7 7 7 8 8 9 9 9 9 8 8 7 8 9 7 6 6 7 7 8 8 8 8 8 7 6 6 6 5 4 3 2 1 1 0 0 -0 -1 -1 -1 -2 -2 -3
6 6 7 7 7 8 9 9 9 9 8 8 7 7 9 8 6 6 6 7 7 7 8 7 7 6 5 4 4 4 3 2 1 1 0 -0 -0 -1 -1 -1 -2 -2 -3 -4
7 6 7 7 8 8 9 9 9 9 9 8 7 7 8 8 7 7 6 7 7 7 6 6 6 5 4 3 2 2 1 1 0 0 -0 -1 -1 -1 -2 -2 -3 -3 -4 -5
6 6 7 8 9 8 8 8 9 9 8 8 7 6 7 8 8 7 7 6 6 6 5 5 4 3 2 2 1 1 0 0 -0 -0 -1 -1 -2 -2 -2 -3 -3 -4 -5 -5
Wind_Speed
3 4 7 9 11 8 3 6 9 7 7 7 14 20 16 11 12 13 13 13 12 12 11 8 7 6 6 5 7 8 11 12 14 12 10 10 8 7 8 8 12 13 13 14
2 9 10 7 6 8 10 14 14 12 8 9 15 26 20 15 16 18 18 18 15 12 9 7 7 7 7 7 8 9 12 13 12 10 7 6 7 7 7 7 10 12 13 13
11 3 6 9 8 9 12 12 11 10 8 8 14 20 16 13 18 20 19 17 16 15 14 10 9 9 8 8 9 10 11 12 12 13 13 13 8 6 5 7 7 8 12 14
9 9 7 6 8 11 12 9 11 11 9 7 6 10 7 8 11 13 14 13 14 14 13 11 11 10 10 8 8 10 11 12 14 15 18 19 12 9 6 6 7 8 11 12
8 6 9 13 11 10 7 5 9 10 9 11 8 10 11 7 10 10 12 13 14 14 14 14 14 13 10 9 9 10 11 12 13 12 17 16 12 10 10 10 11 9 7 10
12 7 6 8 8 10 6 4 6 7 7 13 12 11 12 7 9 10 13 14 14 15 14 13 12 10 9 9 10 11 13 12 10 11 13 16 19 18 16 12 10 7 6 6
9 13 9 6 5 6 9 8 5 7 9 9 9 10 13 9 10 14 15 15 15 14 12 13 14 15 15 14 13 13 14 12 10 12 12 15 18 17 16 13 11 9 6 5
5 7 10 10 12 9 13 13 10 6 6 5 6 12 11 11 13 14 16 15 12 10 11 15 18 19 18 17 16 16 15 13 12 12 12 13 14 11 10 10 9 8 6 6
6 6 4 8 8 8 8 13 10 7 6 7 8 9 10 9 11 14 15 14 13 11 12 15 16 17 18 18 17 17 17 14 13 13 14 13 12 12 11 10 9 8 7 7
7 7 6 5 7 11 8 6 6 10 7 9 9 10 9 8 9 11 13 15 14 11 13 14 15 15 14 15 14 14 16 16 14 14 13 12 12 12 12 11 10 9 8 7
7 6 5 5 11 14 13 11 10 7 6 6 7 9 6 8 5 7 11 12 12 13 15 16 15 14 14 14 15 15 15 16 14 13 13 14 13 12 11 10 9 8 7 7
9 6 8 11 11 13 15 16 16 10 8 6 7 12 4 5 7 10 12 10 5 9 12 13 14 15 16 16 15 15 15 15 14 13 14 14 13 12 12 10 9 8 8 7
10 6 6 6 5 8 11 18 19 15 8 9 10 12 2 5 10 10 9 5 3 10 13 14 14 14 15 15 15 15 14 15 14 14 15 14 12 12 11 9 8 8 7 7
10 8 11 12 10 6 10 15 20 19 13 14 19 22 17 15 15 12 8 0 7 11 14 14 13 12 13 14 15 15 14 14 15 14 14 13 11 11 10 9 8 7 7 7
8 9 14 21 22 18 19 20 21 24 23 15 14 18 21 15 12 9 5 5 10 13 14 14 14 13 13 14 14 14 14 13 14 15 13 12 10 10 9 9 8 7 7 6
7 8 11 19 20 20 21 22 22 23 22 23 20 21 13 9 6 6 4 8 13 14 14 14 14 15 15 15 15 15 14 13 13 14 13 11 11 10 9 8 8 7 6 4
6 5 7 11 14 11 9 11 16 15 14 15 21 20 10 10 10 7 6 9 12 13 14 15 15 15 14 15 16 16 14 13 13 13 12 11 10 9 8 8 7 6 4 3
8 6 5 7 9 5 6 6 7 12 15 16 15 13 9 8 6 4 4 8 10 12 13 13 13 13 12 12 14 14 13 13 13 13 11 10 10 9 8 7 6 4 3 3
11 7 4 5 7 7 6 2 2 5 6 13 17 15 8 2 2 2 1 4 8 10 11 11 12 13 14 15 16 16 14 13 13 12 11 9 9 9 8 7 5 3 3 3
5 6 4 4 5 4 5 4 2 2 5 6 12 13 7 2 1 2 4 5 9 12 13 13 14 15 15 14 15 17 15 13 12 11 10 9 8 8 7 6 4 3 2 2
4 4 6 5 4 6 6 4 3 1 4 4 6 9 6 4 1 4 5 7 10 13 14 15 15 14 14 14 15 16 14 12 11 11 11 9 8 8 7 5 3 3 3 3
6 5 5 4 4 6 4 2 2 4 4 3 2 3 6 7 8 8 10 11 13 14 14 15 15 13 11 12 15 15 12 11 12 12 11 9 7 6 6 6 4 3 3 4
6 7 5 7 7 5 3 4 5 4 4 3 1 4 11 10 8 9 10 11 12 13 13 13 16 15 11 9 13 16 11 12 13 11 10 8 7 6 5 5 4 3 3 3
4 4 3 5 7 7 6 4 2 4 3 3 6 8 8 11 13 13 12 12 12 12 13 14 16 15 12 10 12 14 13 12 12 11 8 7 6 5 4 3 3 2 3 4
5 5 3 6 7 6 4 0 3 5 8 10 11 10 13 18 15 14 13 12 12 12 11 11 14 15 13 13 13 11 11 12 11 9 7 6 5 4 3 3 2 3 3 5
6 7 7 6 5 4 2 3 6 7 8 11 15 14 10 13 16 15 13 11 12 12 12 14 15 15 13 13 12 9 9 10 10 8 6 4 3 3 2 3 4 6 7 11
Wind_Direction
160 184 211 207 211 227 270 277 276 277 304 308 278 279 277 270 271 272 271 266 255 249 253 252 230 202 187 174 155 149 145 147 145 141 134 127 118 110 99 97 103 109 111 107
199 237 228 218 217 234 249 264 272 281 269 276 281 281 277 255 257 257 258 260 258 253 251 228 202 189 193 181 162 152 155 155 153 146 130 120 120 107 96 97 95 103 106 105
212 249 209 203 208 224 238 244 253 263 302 281 289 286 261 240 237 245 245 244 245 242 241 224 204 202 193 188 172 161 157 151 141 132 121 118 108 103 105 103 95 93 100 100
239 240 252 228 219 212 249 228 235 249 258 267 236 285 261 233 246 246 247 242 239 235 228 214 197 197 194 186 165 151 149 145 145 142 142 143 144 140 136 128 116 101 96 98
228 210 217 231 227 202 227 217 224 233 239 258 233 264 275 206 250 251 249 243 236 230 219 207 198 194 178 160 151 144 141 144 148 149 149 143 133 124 126 121 114 102 90 90
243 216 209 220 226 207 211 256 262 242 243 257 225 226 272 203 228 239 243 240 235 228 216 204 185 161 150 148 145 144 144 145 146 144 144 140 137 137 136 132 122 111 99 85
253 235 215 185 209 198 193 220 241 225 224 247 180 212 255 219 213 223 239 242 237 228 206 183 167 165 163 160 156 152 149 145 142 138 136 140 141 142 142 138 132 125 111 96
265 262 209 200 208 201 196 204 220 233 233 266 214 233 254 239 230 233 239 242 240 225 195 182 178 174 170 165 160 156 152 145 140 136 130 129 129 129 129 126 126 119 114 111
237 267 249 209 195 193 194 211 221 251 249 261 249 261 285 256 252 250 250 249 242 220 192 184 179 174 169 165 163 158 150 142 137 133 128 124 121 122 122 116 109 108 109 109
204 261 258 220 188 217 216 183 190 219 241 247 255 253 251 263 267 268 260 252 243 214 189 181 177 171 164 157 147 144 144 139 134 131 131 127 120 118 119 115 110 106 103 101
190 232 268 200 207 211 202 210 217 226 221 226 262 259 218 232 259 302 294 273 246 206 187 178 168 155 146 141 140 138 135 132 131 128 123 121 117 115 111 109 108 108 104 102
196 230 255 236 226 210 211 216 213 224 226 218 249 265 219 264 304 327 321 304 257 189 166 155 148 143 143 142 140 138 137 133 131 127 122 119 117 114 110 109 108 108 104 99
173 213 268 283 239 208 224 225 221 226 235 230 240 262 230 285 315 333 330 316 147 138 135 134 137 142 144 141 138 136 134 130 127 125 122 119 117 115 113 112 111 108 105 96
179 216 229 249 258 233 231 227 222 223 233 240 241 260 282 300 309 318 321 173 137 138 139 139 140 139 139 137 135 133 129 129 128 124 122 121 120 119 118 115 112 109 106 98
199 247 251 258 266 264 254 245 230 225 228 238 252 262 272 283 293 303 294 162 148 150 150 149 146 141 136 132 130 130 129 128 128 124 122 122 121 118 115 113 111 106 100 97
203 260 277 277 273 267 262 253 238 230 230 236 254 267 271 277 292 294 258 177 168 166 161 154 148 145 144 140 138 134 132 131 128 125 125 126 123 119 116 115 111 105 97 87
211 251 283 288 297 288 269 254 230 222 218 223 240 251 265 282 284 275 235 194 179 169 163 160 157 153 149 146 143 140 137 131 125 125 127 128 125 120 119 116 108 102 94 71
221 243 272 291 305 307 298 285 221 216 224 219 235 252 253 258 272 268 212 186 171 164 161 156 149 142 137 133 133 129 129 128 126 126 127 127 124 119 114 108 103 97 83 52
204 209 261 290 306 301 313 330 163 188 240 222 232 248 255 251 325 342 40 153 154 150 146 142 138 137 136 137 136 131 126 125 126 128 129 128 124 120 114 107 101 89 62 29
177 189 236 293 311 315 312 330 150 134 300 234 218 235 236 171 299 318 20 79 115 122 126 127 127 129 132 135 136 131 131 130 131 131 126 120 117 116 114 108 96 73 55 3
160 195 223 251 276 281 289 304 120 108 301 320 221 219 192 182 173 83 64 74 96 108 116 122 126 130 135 137 133 130 130 129 126 120 113 109 109 111 110 99 85 67 37 1
191 191 207 201 241 273 313 51 173 256 299 321 278 185 145 116 94 85 83 90 100 106 111 117 118 117 121 129 128 124 122 120 117 113 109 106 103 103 102 94 79 57 27 358
207 200 198 203 226 257 272 255 283 292 299 325 80 118 125 116 106 101 95 96 98 104 107 111 116 112 105 110 124 121 120 119 114 110 107 106 99 89 88 83 63 36 10 346
254 199 210 264 267 266 270 276 339 5 14 56 100 115 116 117 117 111 107 103 102 103 108 114 114 111 101 92 102 116 120 117 114 112 111 110 104 91 73 59 37 14 339 318
232 183 216 262 274 290 294 152 88 81 84 85 82 90 114 119 117 116 112 108 108 106 104 107 110 108 104 103 103 109 115 115 112 110 108 102 94 91 66 31 349 326 282 277
202 184 188 228 245 212 267 112 120 113 105 108 107 98 94 114 119 114 109 108 108 106 105 103 104 106 107 106 103 102 109 116 116 112 105 100 95 80 53 6 334 321 317 322
Height
1477 1481 1480 1480 1480 1481 1482 1482 1481 1478 1474 1475 1467 1458 1454 1452 1450 1448 1445 1444 1444 1445 1448 1450 1452 1452 1453 1455 1457 1459 1461 1463 1466 1470 1474 1479 1484 1488 1492 1495 1498 1500 1502 1504
1479 1478 1476 1477 1479 1480 1481 1481 1480 1478 1475 1472 1464 1452 1447 1445 1442 1440 1439 1438 1438 1439 1441 1443 1446 1447 1448 1450 1452 1454 1457 1459 1462 1466 1471 1476 1481 1485 1489 1492 1495 1498 1500 1502
1475 1472 1470 1474 1477 1480 1479 1480 1479 1479 1475 1471 1467 1444 1435 1430 1429 1428 1428 1428 1430 1432 1434 1437 1440 1442 1444 1446 1448 1450 1453 1455 1459 1463 1468 1473 1478 1483 1487 1490 1493 1496 1498 1500
1472 1470 1471 1472 1474 1476 1475 1473 1474 1475 1478 1473 1467 1452 1429 1425 1423 1420 1420 1420 1421 1424 1426 1429 1433 1436 1439 1442 1445 1447 1449 1452 1456 1460 1465 1469 1474 1480 1484 1488 1491 1494 1496 1498
1465 1466 1467 1468 1468 1471 1471 1469 1471 1471 1472 1470 1464 1461 1425 1422 1419 1416 1414 1413 1413 1415 1417 1421 1425 1430 1433 1437 1440 1443 1446 1449 1453 1458 1463 1468 1473 1478 1482 1485 1489 1492 1494 1495
1460 1461 1462 1462 1462 1465 1467 1469 1469 1467 1468 1459 1450 1457 1424 1420 1413 1410 1407 1404 1404 1405 1408 1412 1417 1422 1427 1432 1436 1440 1443 1447 1452 1457 1462 1466 1471 1475 1479 1483 1486 1489 1491 1493
1456 1455 1455 1457 1460 1463 1466 1469 1466 1462 1457 1447 1441 1440 1415 1408 1403 1400 1398 1396 1396 1397 1399 1403 1408 1414 1420 1426 1431 1436 1440 1445 1450 1455 1460 1465 1470 1474 1478 1482 1485 1487 1489 1491
1456 1454 1450 1449 1452 1455 1458 1461 1460 1458 1454 1448 1439 1427 1406 1398 1394 1391 1389 1388 1389 1391 1393 1396 1401 1407 1413 1420 1426 1432 1437 1442 1448 1453 1459 1464 1469 1473 1478 1481 1484 1486 1487 1488
1454 1451 1446 1445 1446 1450 1452 1452 1450 1452 1446 1445 1433 1417 1403 1392 1390 1388 1385 1384 1383 1385 1387 1390 1395 1401 1407 1414 1421 1427 1434 1440 1446 1452 1457 1462 1468 1472 1476 1479 1482 1484 1485 1486
1451 1452 1445 1442 1444 1444 1445 1445 1448 1446 1439 1434 1425 1416 1401 1390 1388 1385 1382 1379 1377 1379 1381 1385 1390 1396 1403 1410 1417 1425 1432 1439 1445 1451 1456 1461 1466 1471 1475 1478 1480 1482 1483 1484
1447 1450 1444 1440 1437 1434 1440 1440 1438 1436 1434 1434 1424 1402 1384 1383 1381 1379 1375 1371 1370 1371 1374 1379 1385 1391 1399 1407 1415 1423 1430 1437 1443 1449 1455 1460 1465 1469 1473 1476 1478 1480 1481 1481
1442 1443 1437 1431 1422 1422 1426 1426 1429 1429 1425 1425 1420 1394 1377 1377 1375 1373 1370 1366 1364 1365 1369 1375 1381 1388 1396 1405 1413 1421 1429 1435 1442 1448 1454 1459 1463 1467 1471 1474 1476 1477 1478 1478
1436 1439 1433 1424 1422 1422 1420 1417 1418 1418 1417 1415 1411 1388 1373 1373 1372 1371 1369 1365 1364 1365 1369 1375 1381 1388 1396 1404 1412 1420 1427 1434 1441 1448 1453 1458 1462 1466 1469 1472 1474 1475 1475 1475
1430 1430 1428 1419 1408 1411 1409 1407 1408 1411 1406 1402 1394 1380 1374 1374 1372 1371 1369 1366 1366 1368 1371 1375 1382 1389 1396 1404 1412 1420 1427 1434 1441 1447 1452 1457 1461 1465 1467 1470 1471 1472 1472 1472
1425 1421 1415 1407 1402 1402 1398 1396 1396 1397 1394 1393 1382 1379 1372 1373 1372 1370 1368 1367 1367 1370 1373 1378 1383 1389 1397 1405 1413 1420 1427 1434 1441 1446 1452 1456 1460 1463 1465 1467 1469 1469 1469 1469
1420 1415 1409 1398 1391 1388 1385 1381 1381 1383 1385 1384 1382 1375 1369 1369 1369 1368 1367 1366 1368 1371 1375 1380 1385 1391 1398 1405 1413 1420 1427 1434 1441 1446 1451 1455 1458 1461 1463 1465 1466 1466 1466 1466
1414 1412 1405 1391 1382 1378 1372 1367 1368 1371 1372 1377 1377 1369 1368 1368 1367 1367 1366 1366 1367 1371 1375 1380 1385 1392 1399 1406 1414 1421 1428 1435 1441 1446 1450 1454 1457 1459 1461 1463 1463 1464 1464 1463
1407 1407 1404 1393 1383 1371 1367 1359 1359 1362 1365 1367 1365 1362 1364 1366 1365 1364 1364 1365 1368 1372 1376 1382 1387 1394 1401 1409 1416 1423 1430 1435 1441 1445 1449 1453 1456 1458 1459 1461 1461 1462 1461 1460
1399 1402 1401 1393 1382 1373 1363 1360 1359 1362 1361 1359 1360 1359 1361 1364 1363 1362 1363 1365 1368 1373 1378 1383 1389 1395 1403 1410 1417 1424 1430 1436 1441 1445 1449 1452 1454 1456 1458 1459 1460 1460 1459 1457
1396 1398 1399 1393 1386 1378 1367 1361 1359 1362 1359 1353 1355 1356 1359 1363 1365 1365 1364 1366 1370 1375 1380 1385 1391 1398 1405 1412 1418 1424 1430 1436 1440 1445 1448 1451 1453 1455 1457 1458 1458 1457 1456 1454
1396 1397 1395 1393 1388 1379 1367 1362 1362 1366 1360 1353 1352 1353 1358 1362 1364 1366 1367 1369 1373 1377 1382 1388 1394 1400 1406 1413 1419 1425 1431 1436 1441 1444 1448 1450 1453 1455 1456 1456 1456 1455 1453 1451
1390 1392 1392 1391 1388 1382 1366 1364 1366 1362 1356 1354 1353 1354 1357 1361 1364 1367 1370 1372 1376 1380 1385 1391 1396 1402 1409 1415 1421 1427 1432 1437 1441 1444 1448 1450 1453 1454 1454 1454 1454 1452 1450 1447
1386 1385 1384 1384 1379 1369 1366 1365 1362 1360 1357 1355 1353 1354 1357 1362 1366 1369 1373 1376 1380 1385 1389 1395 1400 1405 1412 1419 1424 1428 1433 1437 1441 1445 1448 1450 1452 1453 1453 1453 1451 1449 1446 1443
1380 1378 1379 1377 1370 1366 1364 1363 1361 1359 1357 1355 1354 1356 1359 1363 1368 1372 1377 1381 1385 1390 1394 1399 1404 1409 1415 1422 1427 1431 1435 1439 1443 1446 1448 1450 1451 1451 1451 1450 1449 1446 1443 1439
1375 1376 1377 1373 1367 1364 1361 1362 1362 1360 1359 1358 1359 1361 1364 1367 1372 1377 1382 1386 1391 1395 1400 1405 1409 1413 1419 1425 1430 1434 1438 1441 1444 1446 1448 1449 1450 1450 1449 1448 1446 1443 1440 1436
1370 1370 1371 1368 1363 1363 1363 1362 1363 1363 1363 1363 1364 1367 1372 1375 1378 1383 1387 1392 1396 1400 1405 1409 1414 1418 1423 1428 1432 1436 1440 1442 1445 1446 1447 1448 1448 1448 1447 1445 1443 1440 1437 1433